Location: Newark
(32.7036°S, 144.7033°W)
Time: 09:26:54
(UTC+00:00)

ISS - Visible Passes

Search period start: 22 November 2019 00:00
Search period end: 02 December 2019 00:00
Orbit: 412 x 421 km, 51.6° (Epoch: 22 November)

Date Brightness Start Highest point End Pass type
(mag) Time Alt. Az. Time Alt. Az. Time Alt. Az.
24 Nov -1.3 13:28:11 10° N 13:30:26 17° NE 13:32:40 10° E visible
26 Nov -3.4 13:27:27 15° NNW 13:30:03 59° NE 13:33:25 10° SE visible
27 Nov -2.4 12:41:05 27° NNE 12:41:42 29° NE 12:44:41 10° ESE visible
28 Nov -0.9 11:54:38 13° ENE 11:54:38 13° ENE 11:55:27 10° E visible
28 Nov -2.8 13:27:32 16° WNW 13:29:52 37° SW 13:33:05 10° SSE visible
29 Nov -3.8 12:40:59 64° W 12:41:22 74° SW 12:44:46 10° SE visible
30 Nov -1.9 11:54:21 29° ESE 11:54:21 29° ESE 11:56:15 10° SE visible
30 Nov -1.3 13:27:49 10° WSW 13:29:54 15° SSW 13:31:58 10° S visible
01 Dec -2.1 12:40:33 22° SW 12:41:14 24° SW 12:44:04 10° SSE visible
